Погода в Анапе

Погода в Анапе : погода сейчас, прогноз погоды и архив. Всё, что Вы хотите узнать о погоде в Анапе!

Поиск расширенной информации на нашем сайте:

Другие новости

Новости СМИ2

Главная страница сайта

Новости сайта

02.10.2013

Напоминаем, что на нашем новом сайте вы можете получить высокодетализированные прогнозы погоды по пунктам России, СНГ и мира (включающие важные для авиации метеовеличины, такие как направление и скорость ветра, видимость, явления погоды, количество и форма облачности, нижняя и верхняя граница облачности), а также ознакомиться с разнообразными материалами по авиационной метеорологии и подборкой полезных ссылок на эту тему.

Сайт Метеоцентр.Азия посвящён разработке технологий оптимизации авиаметеорологического обслуживания, включая проектирование и перспективное создание нескольких автоматизированных авиаметеорологических систем:
- система выпуска высокодетальных прогностических карт явлений погоды для нижнего воздушного пространства по России и ближнему зарубежью;
- система верификации прогнозов TAF (выпускаемых синоптиками официальных АМСГ РФ и ближнего зарубежья) и AUTOTAF (выпускаемых сайтом Метеоцентр.Азия) - выявление ошибок, онлайн-сопоставление с фактической погодой METAR, автоматическое внесение коррективов в прогнозы при резком отклонении фактической погоды от прогноза, подсчёт оправдываемости прогнозов по элементам и в целом;
- система обработки, анализа и отображения авиаметеорологической информации для применения провайдерами метеорологической информации.


Погода в Анапе - сегодня

Время (UTC), дата Ветер
(°,м/с) 
Видим.   Явления Облачность Т
(°С)
Тd
(°С)
f(%) Тe
(°С)
Pmin
(гПа)
dP
(гПа)
Po
(мм)
O2
(г/м3)
Тmin Tmax R s Состояние
почвы
03 25.06.17 050 (СВ) 4000 м  дымка  ясно 
+19 +18 94 +35  1013.1  1.2  757  281  +18.1        сухая 
06 25.06.17 280 (З) 10 км    1/1 600 м 
[Cu med, cong]
+22.6 +19.9 85 +41  1014.4  1.4  758  277           
09 25.06.17 220 (ЮЗ) 10 км    4/3 600 м средняя 
[Cu med, cong|Ac trans]
+24.1 +20.9 82 +44  1015.5  1.1  759  276           
12 25.06.17 180 (Ю) 20000 м    5/1 600 м средняя 
[Cu med, cong|Ac trans]
+24.9 +20.2 75 +44  1015.9  0.4  759  275           
15 25.06.17 190 (Ю) 20000 м    5/0 средняя, верхняя 
[Ac trans|Ci fib]
+23.9 +19.1 75 +40  1016.1  0.2  759  277    +25.1       
18 25.06.17 170 (Ю) 10 км    ясно 
+21.7 +20 90 +40  1016.5  0.4  760  279           
21 25.06.17 170 (Ю) 10 км    ясно 
+21.5 +17.5 78 +34  1016.8  0.2  760  280           
00 26.06.17 030 (СВ) 10 км    ясно 
+18.3 +15.3 83 +29  1016.3  -0.5  759  284           
03 26.06.17 040 (СВ) 10 км    ясно 
+19.1 +15.4 79 +30  1015.8  -0.5  759  283  +17.2        сухая 
06 26.06.17 180 (Ю) 10 км    ясно 
+23.2 +18.6 75 +38  1016.1  0.3  759  278           
09 26.06.17 230 (ЮЗ) 10 км    1/1 600 м 
[Cu med, cong]
+24.4 +19.1 72 +41  1015.7  -0.3  759  276           
12 26.06.17 240 (ЮЗ) 20000 м    1/1 600 м 
[Cu med, cong]
+24.9 +19.3 71 +42  1014.8  -0.9  758  275           
15 26.06.17 320 (СЗ) 20000 м    ясно 
+25.5 +16.7 58 +37  1013.2  -1.6  757  275    +25.8       
18 26.06.17 030 (СВ) 10 км    ясно 
+24.2 +18.4 70 +39  1012.3  -0.9  756  276           
21 26.06.17 050 (СВ) 10 км    ясно 
+22.4 +17.3 73 +35  1011.5  -0.9  756  278           
00 27.06.17 040 (СВ) 10 км    ясно 
+21 +17.4 80 +34  1010.9  -0.5  755  279           
03 27.06.17 050 (СВ) 10 км    1/0 верхняя 
[Ci sp]
+21.5 +16.5 73 +33  1010.4  -0.5  755  278  +20.3        сухая 
06 27.06.17 260 (З) 20000 м    8/0 верхняя 
[Ci sp]
+25.1 +20.4 75 +44  1010.7  0.3  755  274           
09 27.06.17 210 (ЮЗ) 20000 м    5/0 верхняя 
[Ci sp]
+25.3 +20.8 76 +46  1010.9  0.2  755  273           
12 27.06.17 170 (Ю) 10 км    3/0 верхняя 
[Ci sp]
+27.1 +21.2 70 +48  1010.6  -0.4  755  271           
15 27.06.17 220 (ЮЗ) 10 км    ясно 
+25.8 +22.2 81 +50  1010.5  0.1  755  272    +27.5       
18 27.06.17 190 (Ю) 4000 м  дымка  3/0 средняя 
[Ac As]
+23.9 +21.6 87 +46  1010.5  755  274           
21 27.06.17 170 (Ю) 10 км    1/1 300 м 
[St]
+23.4 +21.5 89 +45  1011  0.5  755  275           
00 28.06.17 160 (Ю) 10 км    ясно 
+22.2 +20.2 88 +41  1010.9  0.1  755  277           
03 28.06.17 140 (ЮВ) 10 км    3/1 600 м средняя 
[Sc|Ac As]
+22.9 +18.9 78 +39  1011.2  0.3  756  276  +21.4        сухая 
Время (UTC), дата Ветер
(°,м/с) 
Видим.   Явления Облачность Т
(°С)
Тd
(°С)
f(%) Тe
(°С)
Pmin
(гПа)
dP
(гПа)
Po
(мм)
O2
(г/м3)
Тmin Tmax R s Состояние
почвы

Для получения пояснительной информации подведите курсор к названию столбца.

ПОГОДА в Анапе - архив

Всё, что Вы хотите узнать о погоде в Анапе - удобно и подробно!

Выберите нужную дату (начиная с 1 января 2015* года) и нажмите кнопку "Найти".
Будут отображены архивные сводки погоды по пункту Анапа, начиная с указанной даты.


Отображать данные в формате CSV (для использования в таблицах Excel)


Внимание! Наш архив погоды предназначен исключительно для личного некоммерческого использования в познавательных целях. Если Вам необходимы официальные справки о состоянии погоды (для производственных, юридических, коммерческих и т.п. целей), обращайтесь в органы Росгидромета.

*Примечание: данная дата относится к архиву по метеостанциям СССР (Россия, СНГ, Балтия).
Архив по метеостанциям Зарубежной Европы и Азии (кроме Китая) хранится 10 дней, по другим регионам земного шара (Китай, Африка, Америка, Австралия, Океания) - 1 день.

Анапа - район местоположения метеостанции


Название, широта, долгота, высота метеостанции:
Анапа (обсерватория) 44.97°ш. 37.30°д. 23 м над ур. моря [Российская Федерация]

Дополнительная информация

В oтличие oт бoльшинства пoгoдных сайтoв мы публикуем пoдрoбную метеoинфoрмацию в детальнoм прoфессиoнальнoм фoрмате.

Характеристики температуры и влажнoсти вoздуха измеряются на высoте 2 м в тени вдали oт зданий и деревьев.
Скoрoсть ветра измеряется на высoте 10 м (на урoвне рoста челoвека скoрoсть ветра ниже в 1.5-2 раза). Если метеoстанция нахoдится в гoрoде или в лесу, тo скoрoсть ветра занижена на 2-4 м/с пo сравнению с oткрытым местoм. Скoрoсть ветра над акватoриями крупных рек и oзёр, а также на вершинах хoлмoв на 2-5 м/с выше, чем в oбычных услoвиях.
Атмoсфернoе давление в разных тoчках местнoсти мoжет значительнo oтличаться oт давления на метеoстанции, в зависимoсти oт услoвий рельефа (при пoдъёме на 10 м давление пoнижается примернo на 1 мм рт.ст.).